[[{"header":{"parameterUnit":"m.s-1","parameterCategory":1,"la1":30.2991,"la2":30.254,"lo1":-89.0895,"lo2":-89.0444,"dy":0.0017,"dx":0.0017,"nx":28,"ny":28,"refTime":"2025-04-16T21:00:00:Z","depth":0,"parameterNumber":2,"parameterNumberName":"U-component_of_WINDS"},"data":[0,0,0,0,0,0,0,0,0,0,0,0,0,0,0,0,0,0,0,0,0,0,0,0,0,0,0,0,0,0,0,0,0,0,0,0,0,0,0,0,0,0,0,0,0,0,0,0,0,0,0,0,0,0,0,0,0,0,1.2519,1.252,0,1.2654,1.2656,1.2657,1.2717,1.2716,1.2716,1.2716,1.2853,1.2857,1.2861,0,0,0,0,0,0,0,0,0,0,0,0,0,1.2307,1.2311,1.2518,1.252,1.2522,1.2654,1.2656,1.2658,1.2717,1.2716,1.2716,1.2716,1.2852,1.2857,1.2861,0,0,0,0,0,0,0,0,0,0,0,0,0,1.2417,1.2312,1.2518,1.2567,1.2573,1.2654,1.2656,1.2658,1.2717,1.2716,1.2716,1.2716,1.2851,1.2856,1.2862,1.2904,0,0,1.288,1.2882,0,0,0,0,0,0,0,0,1.241,1.2424,1.2558,1.2564,1.2571,1.2668,1.2632,1.2741,1.2717,1.2662,1.2716,1.2716,1.2792,1.2802,1.2829,1.291,1.2916,1.288,1.2884,1.2886,1.2888,0,0,0,0,0,0,0,1.2403,1.2419,1.2572,1.256,1.2568,1.2582,1.2597,1.2653,1.2727,1.2667,1.2671,1.2687,1.2795,1.2823,1.2832,1.2918,1.288,1.2885,1.2889,1.2891,1.304,1.3041,0,0,0,0,0,0,1.2387,1.2412,1.2568,1.2576,1.2488,1.2586,1.2603,1.2637,1.2727,1.274,1.2687,1.2689,1.2813,1.2825,1.2837,1.2892,1.2886,1.2891,1.2895,1.304,1.304,1.3041,0,0,0,0,0,0,1.2383,1.2401,1.2562,1.2496,1.2517,1.259,1.2628,1.264,1.2668,1.2742,1.2755,1.2702,1.2813,1.2829,1.2887,1.2898,1.2894,1.2899,1.3039,1.304,1.304,1.3002,0,0,0,0,0,0,1.2376,1.2399,1.2416,1.2495,1.2521,1.261,1.2629,1.2643,1.2678,1.2682,1.2759,1.2772,1.2814,1.2878,1.2892,1.2906,1.2904,1.3038,1.3039,1.304,1.3002,1.3001,1.3,0,0,0,0,0,1.2369,1.2399,1.2416,1.2435,1.2544,1.2611,1.2625,1.2674,1.2678,1.2696,1.2743,1.2769,1.2894,1.2883,1.29,1.2915,1.3038,1.3039,1.304,1.3003,1.3001,1.3,0,0,0,0,0,0,1.2318,1.2411,1.2431,1.2488,1.2541,1.262,1.2644,1.2671,1.2723,1.2725,1.2783,1.2799,1.2852,1.2889,1.2876,1.296,1.2968,1.2973,1.2934,1.2933,1.2932,1.2922,1.2909,0,0,0,0,0,1.2314,1.2362,1.2439,1.2482,1.2508,1.2571,1.2602,1.2635,1.2692,1.2715,1.2767,1.282,1.2872,1.2904,1.2956,1.3008,1.3025,1.3026,1.3025,1.3024,1.3027,1.3057,1.3058,1.3044,1.3044,1.3044,0,0,1.2305,1.2362,1.2388,1.2474,1.2519,1.2566,1.259,1.2639,1.2674,1.2722,1.278,1.2819,1.2883,1.2938,1.2965,1.2971,1.3035,1.3025,1.3024,1.3028,1.3058,1.306,1.3061,1.3045,1.3045,1.3045,0,0,1.2314,1.2361,1.2403,1.2447,1.2515,1.2557,1.2567,1.2642,1.2671,1.2729,1.2767,1.2809,1.2896,1.294,1.2974,1.2998,1.3024,1.3013,1.3007,1.3036,1.3037,1.3038,1.3047,1.3049,1.3016,1.3016,1.3016,0,1.2295,1.2368,1.242,1.2467,1.2504,1.255,1.2591,1.2632,1.2713,1.2736,1.2742,1.2852,1.2898,1.2964,1.297,1.2996,1.3008,1.3005,1.3032,1.3034,1.3036,1.3045,1.3048,1.3014,1.3015,1.3015,1.3015,0,1.2341,1.2391,1.2416,1.2494,1.2533,1.2576,1.2634,1.2667,1.2697,1.2738,1.2797,1.2853,1.2917,1.2935,1.2964,1.3005,1.3006,1.3021,1.3031,1.3035,1.3044,1.3048,1.3012,1.3012,1.3013,1.3013,0,0,1.2322,1.2428,1.2436,1.2472,1.255,1.2589,1.2635,1.2698,1.2725,1.2778,1.2818,1.289,1.2905,1.2943,1.2977,1.3002,1.3018,1.3014,1.3017,1.3013,1.3066,1.3054,1.3057,1.3035,1.3036,1.3036,1.306,0,1.2342,1.2427,1.2475,1.2539,1.2586,1.263,1.2669,1.2721,1.276,1.2805,1.2848,1.2898,1.2913,1.2937,1.2963,1.301,1.3029,1.3009,1.3072,1.3073,1.3055,1.3062,1.305,1.307,1.3064,1.3065,1.3065,0,1.2376,1.243,1.2499,1.2572,1.2593,1.2628,1.2689,1.2731,1.279,1.2817,1.2859,1.2893,1.2942,1.2947,1.3015,1.3001,1.3029,1.3055,1.3057,1.3066,1.307,1.307,1.3078,1.3081,1.3072,1.3071,1.3071,0,1.2356,1.2445,1.2498,1.2527,1.2613,1.2637,1.2673,1.2732,1.2767,1.282,1.2843,1.29,1.2932,1.2975,1.3023,1.3023,1.3087,1.3096,1.311,1.3109,1.3122,1.312,1.3134,1.3139,1.3139,1.3139,1.3139,0,1.2372,1.2413,1.249,1.2523,1.257,1.2624,1.2668,1.2708,1.276,1.28,1.2842,1.2879,1.294,1.2985,1.3023,1.3073,1.3087,1.311,1.3119,1.3106,1.3103,1.3126,1.3126,1.314,1.314,1.314,1.314,0,1.2358,1.2411,1.2472,1.2548,1.2568,1.2599,1.2664,1.2697,1.2738,1.2789,1.2804,1.2868,1.2923,1.2975,1.3048,1.3073,1.3124,1.3136,1.3104,1.3109,1.3121,1.3119,1.315,1.3156,1.3156,1.3156,1.3156,0,1.2365,1.2398,1.2478,1.2508,1.2544,1.2593,1.2628,1.2682,1.2717,1.2787,1.2811,1.2868,1.2918,1.3002,1.3055,1.3111,1.3125,1.3132,1.3134,1.312,1.3125,1.3123,1.3127,1.3131,1.313,1.313,1.313,0,1.2373,1.2398,1.2448,1.2507,1.2548,1.2597,1.2647,1.2669,1.2733,1.277,1.2827,1.2864,1.2939,1.2995,1.3057,1.3094,1.3122,1.3129,1.3135,1.3122,1.3102,1.3114,1.3101,1.3128,1.3128,1.3128,1.3129,1.3129,1.237,1.2401,1.2462,1.2516,1.2559,1.2605,1.264,1.2685,1.2734,1.2799,1.2827,1.2884,1.2942,1.3028,1.3064,1.3109,1.3116,1.3125,1.3128,1.3129,1.3126,1.3095,1.3121,1.3121,1.3121,1.3121,1.3121,0,1.238,1.2421,1.247,1.254,1.2582,1.2605,1.2662,1.2696,1.2745,1.2797,1.2844,1.2909,1.2964,1.302,1.3078,1.3103,1.3118,1.3117,1.3116,1.3124,1.3117,1.3106,1.3104,1.3104,1.3104,1.3104,1.3104,1.3104,1.239,1.2443,1.2475,1.255,1.2591,1.2648,1.2678,1.272,1.2762,1.2832,1.2878,1.2915,1.2969,1.3031,1.3082,1.3097,1.3116,1.3112,1.313,1.3123,1.3124,1.3125,1.3115,1.3115,1.3115,1.3134,1.3134,1.3134]},{"header":{"parameterUnit":"m.s-1","parameterCategory":1,"la1":30.2991,"la2":30.254,"lo1":-89.0895,"lo2":-89.0444,"dy":0.0017,"dx":0.0017,"nx":28,"ny":28,"refTime":"2025-04-16T21:00:00:Z","depth":0,"parameterNumber":3,"parameterNumberName":"V-component_of_WINDS"},"data":[0,0,0,0,0,0,0,0,0,0,0,0,0,0,0,0,0,0,0,0,0,0,0,0,0,0,0,0,0,0,0,0,0,0,0,0,0,0,0,0,0,0,0,0,0,0,0,0,0,0,0,0,0,0,0,0,0,0,3.2059,3.2058,0,3.203,3.203,3.2029,3.2003,3.2003,3.2003,3.2003,3.197,3.197,3.1969,0,0,0,0,0,0,0,0,0,0,0,0,0,3.209,3.2089,3.2059,3.2058,3.2058,3.203,3.2029,3.2029,3.2004,3.2003,3.2003,3.2002,3.197,3.197,3.1969,0,0,0,0,0,0,0,0,0,0,0,0,0,3.207,3.2089,3.2059,3.2042,3.204,3.203,3.2029,3.2029,3.2004,3.2003,3.2003,3.2002,3.1971,3.197,3.1969,3.1972,0,0,3.1966,3.1966,0,0,0,0,0,0,0,0,3.2071,3.2069,3.2045,3.2043,3.2041,3.202,3.2028,3.201,3.2004,3.2017,3.2003,3.2002,3.1987,3.1985,3.198,3.1971,3.1969,3.1966,3.1966,3.1965,3.1965,0,0,0,0,0,0,0,3.2072,3.207,3.2047,3.2044,3.2042,3.2035,3.2032,3.2025,3.2005,3.2016,3.2014,3.2011,3.1986,3.1981,3.1979,3.1969,3.1966,3.1965,3.1965,3.1964,3.196,3.1961,0,0,0,0,0,0,3.2077,3.2071,3.2048,3.2046,3.2055,3.2035,3.2031,3.2027,3.2005,3.2001,3.2012,3.201,3.1983,3.198,3.1978,3.198,3.1965,3.1964,3.1964,3.196,3.196,3.1961,0,0,0,0,0,0,3.2077,3.2075,3.2049,3.2058,3.2054,3.2035,3.203,3.2027,3.2022,3.2002,3.1998,3.2011,3.1982,3.1979,3.1974,3.1978,3.1964,3.1963,3.1959,3.196,3.1961,3.1984,0,0,0,0,0,0,3.2078,3.2075,3.2077,3.2059,3.2054,3.2047,3.2031,3.2026,3.2021,3.2019,3.2,3.1996,3.1982,3.1975,3.1973,3.1977,3.1962,3.1959,3.196,3.196,3.1983,3.1986,3.1988,0,0,0,0,0,3.208,3.2084,3.2077,3.2075,3.2056,3.2047,3.2044,3.2029,3.2021,3.2022,3.2009,3.1997,3.1979,3.1975,3.1972,3.1976,3.1958,3.1959,3.196,3.1982,3.1985,3.1988,0,0,0,0,0,0,3.2103,3.2081,3.2073,3.2072,3.2062,3.2043,3.2043,3.2033,3.2023,3.2021,3.2002,3.1997,3.1994,3.1985,3.1981,3.1978,3.1967,3.1967,3.1984,3.1987,3.199,3.1991,3.1962,0,0,0,0,0,3.2108,3.2103,3.2085,3.2085,3.2081,3.2063,3.2059,3.2048,3.2036,3.2031,3.2017,3.2005,3.1997,3.1991,3.1983,3.1982,3.1977,3.1983,3.1985,3.1988,3.1988,3.1986,3.1989,3.1964,3.1964,3.1964,0,0,3.2118,3.2106,3.2104,3.209,3.208,3.2075,3.2059,3.2055,3.205,3.203,3.2024,3.2014,3.1999,3.1996,3.1994,3.1988,3.1994,3.1989,3.1991,3.199,3.1987,3.199,3.1992,3.1964,3.1964,3.1964,0,0,3.2134,3.2125,3.2124,3.2115,3.2101,3.209,3.209,3.2072,3.2065,3.206,3.2044,3.2038,3.2024,3.2014,3.2007,3.202,3.2007,3.2018,3.203,3.2029,3.2031,3.2032,3.2036,3.2038,3.2018,3.2018,3.2018,0,3.2148,3.214,3.2125,3.2121,3.2115,3.2097,3.2096,3.2088,3.2072,3.2068,3.2061,3.2044,3.2032,3.2027,3.203,3.2025,3.2024,3.2019,3.2032,3.2033,3.2035,3.2038,3.204,3.2019,3.2019,3.2019,3.2019,0,3.2158,3.2153,3.2154,3.214,3.2134,3.2132,3.2115,3.2111,3.2101,3.209,3.2084,3.207,3.2058,3.2056,3.2045,3.2049,3.2045,3.2036,3.2024,3.2038,3.2041,3.2043,3.2021,3.2021,3.202,3.202,0,0,3.2186,3.2164,3.2165,3.2158,3.2142,3.2137,3.2134,3.2123,3.212,3.2109,3.2106,3.2095,3.2086,3.2078,3.2066,3.2065,3.2076,3.2056,3.2055,3.2059,3.2077,3.2084,3.2086,3.2068,3.2068,3.2068,3.2079,0,3.2199,3.2193,3.2179,3.2177,3.2172,3.2155,3.2152,3.2141,3.2131,3.2124,3.2113,3.2105,3.2094,3.209,3.2088,3.2075,3.2079,3.2074,3.2063,3.2063,3.2066,3.2088,3.2095,3.2105,3.208,3.208,3.208,0,3.2212,3.2204,3.2201,3.2186,3.2183,3.2181,3.217,3.2164,3.2152,3.2144,3.2136,3.2123,3.2118,3.2108,3.21,3.2097,3.2092,3.2085,3.2085,3.2082,3.2072,3.2085,3.2108,3.2109,3.2082,3.2082,3.2081,0,3.2232,3.222,3.2217,3.2212,3.2194,3.2193,3.2185,3.2172,3.2166,3.2157,3.2153,3.2142,3.2136,3.2128,3.2112,3.2107,3.2106,3.2095,3.2099,3.2099,3.2098,3.2099,3.212,3.2097,3.2097,3.2097,3.2097,0,3.2247,3.2246,3.2226,3.2224,3.2222,3.2207,3.2205,3.2196,3.2184,3.218,3.2165,3.216,3.2141,3.2134,3.2122,3.2117,3.2114,3.2107,3.2104,3.2108,3.2109,3.2104,3.2102,3.2097,3.2097,3.2097,3.2097,0,3.2269,3.2256,3.2251,3.2235,3.2231,3.223,3.2215,3.2212,3.2202,3.2196,3.2194,3.2176,3.2167,3.2152,3.2138,3.213,3.2127,3.2122,3.2131,3.2129,3.2134,3.2133,3.2152,3.2153,3.213,3.213,3.213,0,3.2279,3.2278,3.2261,3.2258,3.2251,3.2245,3.224,3.2224,3.2219,3.2205,3.2203,3.2194,3.2185,3.2172,3.2157,3.2147,3.214,3.2148,3.2139,3.2143,3.214,3.214,3.2139,3.215,3.215,3.215,3.215,0,3.2297,3.2291,3.2284,3.2275,3.227,3.2262,3.2253,3.225,3.2232,3.2227,3.2219,3.2212,3.2199,3.2189,3.2177,3.2168,3.2156,3.2154,3.2154,3.2158,3.2163,3.216,3.2136,3.2153,3.2153,3.2153,3.2152,3.2152,3.2313,3.2311,3.23,3.2292,3.2284,3.2277,3.2273,3.2262,3.2255,3.2244,3.2235,3.2227,3.2214,3.2197,3.2189,3.2181,3.2176,3.2176,3.2176,3.2176,3.2178,3.2165,3.2179,3.2179,3.2179,3.2179,3.2179,0,3.233,3.2322,3.2316,3.2304,3.2299,3.229,3.2279,3.2275,3.2269,3.2258,3.2251,3.2241,3.2231,3.2216,3.2206,3.2203,3.2197,3.22,3.22,3.2198,3.2184,3.2184,3.2205,3.2205,3.2205,3.2205,3.2205,3.2205,3.2338,3.2335,3.2327,3.232,3.2311,3.2304,3.2299,3.2292,3.2283,3.2273,3.2266,3.2257,3.2244,3.2233,3.2224,3.2219,3.2216,3.2221,3.2215,3.2201,3.2199,3.2197,3.2197,3.222,3.222,3.2229,3.2229,3.2229]}]]